[[{"header":{"parameterUnit":"m.s-1","parameterCategory":1,"la1":30.2991,"la2":30.254,"lo1":-89.0895,"lo2":-89.0444,"dy":0.0017,"dx":0.0017,"nx":28,"ny":28,"refTime":"2023-09-03T03:00:00:Z","depth":0,"parameterNumber":2,"parameterNumberName":"U-component_of_WINDS"},"data":[0,0,0,0,0,0,0,0,0,0,0,0,0,0,0,0,0,0,0,0,0,0,0,0,0,0,0,0,0,0,0,0,0,0,0,0,0,0,0,0,0,0,0,0,0,0,0,0,0,0,0,0,0,0,0,0,0,0,-4.1802,-4.1803,0,-4.1843,-4.1843,-4.1844,-4.1828,-4.1827,-4.1826,-4.1826,-4.1864,-4.1866,-4.1868,0,0,0,0,0,0,0,0,0,0,0,0,0,-4.1708,-4.171,-4.1802,-4.1803,-4.1803,-4.1843,-4.1843,-4.1844,-4.1828,-4.1827,-4.1826,-4.1825,-4.1863,-4.1866,-4.1868,0,0,0,0,0,0,0,0,0,0,0,0,0,-4.1749,-4.1711,-4.1802,-4.18,-4.1801,-4.1843,-4.1843,-4.1844,-4.1829,-4.1827,-4.1826,-4.1825,-4.1863,-4.1865,-4.1868,-4.1913,0,0,-4.1877,-4.1878,0,0,0,0,0,0,0,0,-4.1747,-4.1752,-4.18,-4.18,-4.1801,-4.1829,-4.1824,-4.1867,-4.1829,-4.1818,-4.1825,-4.1824,-4.1853,-4.1857,-4.1867,-4.1915,-4.1917,-4.1877,-4.1879,-4.188,-4.1881,0,0,0,0,0,0,0,-4.1744,-4.175,-4.1818,-4.1801,-4.1801,-4.1797,-4.1801,-4.1832,-4.1843,-4.1819,-4.1818,-4.1823,-4.1853,-4.1865,-4.1868,-4.1917,-4.1877,-4.1879,-4.1881,-4.1882,-4.2005,-4.2006,0,0,0,0,0,0,-4.1741,-4.1748,-4.1817,-4.1819,-4.177,-4.1799,-4.1804,-4.1821,-4.1842,-4.1844,-4.1824,-4.1822,-4.1861,-4.1865,-4.1869,-4.1923,-4.188,-4.1883,-4.1884,-4.2003,-4.2005,-4.2007,0,0,0,0,0,0,-4.1739,-4.1748,-4.1815,-4.1784,-4.1792,-4.1803,-4.1822,-4.1823,-4.1834,-4.1847,-4.1848,-4.1834,-4.186,-4.1865,-4.1903,-4.1924,-4.1884,-4.1886,-4.2001,-4.2004,-4.2006,-4.2032,0,0,0,0,0,0,-4.1737,-4.1747,-4.1765,-4.1784,-4.1794,-4.1849,-4.1823,-4.1825,-4.184,-4.1837,-4.1856,-4.1858,-4.1859,-4.1899,-4.1906,-4.1928,-4.1889,-4.1999,-4.2002,-4.2005,-4.2029,-4.2035,-4.204,0,0,0,0,0,-4.1733,-4.177,-4.1766,-4.1774,-4.1816,-4.185,-4.1855,-4.1857,-4.1842,-4.1859,-4.1867,-4.1857,-4.1922,-4.1903,-4.191,-4.1933,-4.1998,-4.2001,-4.2005,-4.2027,-4.2034,-4.204,0,0,0,0,0,0,-4.1751,-4.1772,-4.1768,-4.1812,-4.183,-4.1847,-4.1869,-4.1864,-4.1885,-4.1882,-4.1882,-4.1886,-4.1925,-4.1933,-4.1912,-4.1979,-4.1957,-4.1962,-4.1971,-4.1978,-4.1983,-4.198,-4.1891,0,0,0,0,0,-4.176,-4.1787,-4.1804,-4.1841,-4.185,-4.1858,-4.1873,-4.1873,-4.189,-4.1897,-4.1908,-4.1925,-4.1949,-4.1964,-4.1987,-4.2031,-4.2034,-4.2051,-4.2056,-4.2061,-4.2064,-4.2088,-4.2095,-4.2018,-4.2018,-4.2018,0,0,-4.1779,-4.1794,-4.181,-4.1845,-4.1858,-4.1885,-4.1865,-4.1893,-4.1913,-4.1901,-4.1937,-4.1946,-4.1965,-4.2006,-4.2024,-4.2014,-4.2087,-4.2065,-4.2068,-4.207,-4.2092,-4.2099,-4.2106,-4.202,-4.202,-4.202,0,0,-4.1827,-4.1841,-4.1874,-4.1888,-4.1909,-4.1915,-4.1923,-4.1942,-4.1948,-4.1984,-4.1976,-4.1999,-4.2041,-4.2054,-4.2066,-4.2121,-4.2112,-4.2129,-4.2155,-4.2178,-4.2184,-4.219,-4.2208,-4.2215,-4.2133,-4.2133,-4.2133,0,-4.1847,-4.1887,-4.1891,-4.192,-4.1935,-4.1928,-4.1961,-4.1974,-4.2001,-4.2011,-4.2,-4.2052,-4.2064,-4.2108,-4.2122,-4.2132,-4.214,-4.2125,-4.2184,-4.2189,-4.2194,-4.2211,-4.2218,-4.2135,-4.2134,-4.2134,-4.2134,0,-4.1911,-4.1939,-4.1963,-4.199,-4.2008,-4.2039,-4.2046,-4.2064,-4.2063,-4.207,-4.2107,-4.2121,-4.2147,-4.2158,-4.2156,-4.2201,-4.2194,-4.2184,-4.2162,-4.2203,-4.2219,-4.2226,-4.2137,-4.2136,-4.2136,-4.2135,0,0,-4.1968,-4.1999,-4.2007,-4.202,-4.2044,-4.2065,-4.2096,-4.2122,-4.2137,-4.2157,-4.2181,-4.2217,-4.2208,-4.2222,-4.2222,-4.2243,-4.2284,-4.2229,-4.2229,-4.2237,-4.2333,-4.234,-4.2348,-4.2279,-4.2281,-4.2282,-4.2331,0,-4.2017,-4.2071,-4.2076,-4.2125,-4.215,-4.2145,-4.2171,-4.2189,-4.2196,-4.2218,-4.2226,-4.2252,-4.2238,-4.2246,-4.2266,-4.2274,-4.2303,-4.2271,-4.2301,-4.2302,-4.2295,-4.2357,-4.2364,-4.241,-4.2338,-4.2339,-4.234,0,-4.208,-4.2103,-4.2154,-4.2175,-4.2186,-4.221,-4.2235,-4.2257,-4.2276,-4.228,-4.2297,-4.2294,-4.2325,-4.2304,-4.2346,-4.2324,-4.2337,-4.2343,-4.2345,-4.2346,-4.2322,-4.2358,-4.2425,-4.2431,-4.235,-4.2349,-4.2349,0,-4.2115,-4.2159,-4.2196,-4.2207,-4.2232,-4.2249,-4.226,-4.2278,-4.2294,-4.2315,-4.2325,-4.235,-4.2363,-4.2381,-4.2385,-4.237,-4.2427,-4.2406,-4.243,-4.243,-4.244,-4.2439,-4.2508,-4.2452,-4.2452,-4.2451,-4.2451,0,-4.2168,-4.2199,-4.2212,-4.2234,-4.2269,-4.2274,-4.2308,-4.2318,-4.2335,-4.2358,-4.2355,-4.2377,-4.2382,-4.2405,-4.2409,-4.2442,-4.2448,-4.2452,-4.2452,-4.2451,-4.245,-4.2458,-4.2454,-4.2453,-4.2453,-4.2452,-4.2452,0,-4.2212,-4.2222,-4.2262,-4.2283,-4.2289,-4.2314,-4.2332,-4.2353,-4.2361,-4.2391,-4.2398,-4.241,-4.2436,-4.2443,-4.2475,-4.2477,-4.2516,-4.2514,-4.251,-4.2509,-4.2532,-4.2529,-4.2607,-4.2617,-4.2555,-4.2556,-4.2556,0,-4.2245,-4.2269,-4.2293,-4.231,-4.2322,-4.2348,-4.2364,-4.237,-4.2387,-4.2412,-4.243,-4.2456,-4.2478,-4.2521,-4.2531,-4.2556,-4.2553,-4.2579,-4.2556,-4.2555,-4.2552,-4.255,-4.2552,-4.2582,-4.2583,-4.2583,-4.2584,0,-4.23,-4.2304,-4.2328,-4.2355,-4.2375,-4.2395,-4.2415,-4.2428,-4.2437,-4.2456,-4.2484,-4.2501,-4.2534,-4.256,-4.2585,-4.2595,-4.2591,-4.2591,-4.2598,-4.2596,-4.2592,-4.2593,-4.252,-4.2589,-4.2588,-4.2588,-4.2588,-4.2588,-4.2339,-4.236,-4.2381,-4.2408,-4.2424,-4.2443,-4.2463,-4.2475,-4.2498,-4.2526,-4.2529,-4.2559,-4.2577,-4.261,-4.2623,-4.2646,-4.2638,-4.2647,-4.2649,-4.2651,-4.2653,-4.259,-4.265,-4.265,-4.265,-4.265,-4.265,0,-4.2393,-4.2407,-4.2432,-4.246,-4.2481,-4.2477,-4.2499,-4.2517,-4.2544,-4.2562,-4.2584,-4.2616,-4.2642,-4.2655,-4.2681,-4.2696,-4.2695,-4.2703,-4.2701,-4.2703,-4.2659,-4.265,-4.2703,-4.2703,-4.2703,-4.2703,-4.2703,-4.2703,-4.2424,-4.246,-4.2466,-4.251,-4.2523,-4.2553,-4.2566,-4.2583,-4.2598,-4.2634,-4.2656,-4.2665,-4.2681,-4.2708,-4.2731,-4.2734,-4.2743,-4.2752,-4.2754,-4.2712,-4.2706,-4.2701,-4.2693,-4.2754,-4.2754,-4.2796,-4.2796,-4.2796]},{"header":{"parameterUnit":"m.s-1","parameterCategory":1,"la1":30.2991,"la2":30.254,"lo1":-89.0895,"lo2":-89.0444,"dy":0.0017,"dx":0.0017,"nx":28,"ny":28,"refTime":"2023-09-03T03:00:00:Z","depth":0,"parameterNumber":3,"parameterNumberName":"V-component_of_WINDS"},"data":[0,0,0,0,0,0,0,0,0,0,0,0,0,0,0,0,0,0,0,0,0,0,0,0,0,0,0,0,0,0,0,0,0,0,0,0,0,0,0,0,0,0,0,0,0,0,0,0,0,0,0,0,0,0,0,0,0,0,5.1693,5.1694,0,5.1766,5.1767,5.1768,5.178,5.1779,5.1778,5.1778,5.1848,5.185,5.1853,0,0,0,0,0,0,0,0,0,0,0,0,0,5.1558,5.1561,5.1693,5.1694,5.1695,5.1766,5.1767,5.1768,5.178,5.1779,5.1778,5.1777,5.1847,5.185,5.1853,0,0,0,0,0,0,0,0,0,0,0,0,0,5.1622,5.1561,5.1693,5.1709,5.1711,5.1766,5.1767,5.1768,5.178,5.1779,5.1778,5.1777,5.1846,5.185,5.1853,5.1895,0,0,5.1865,5.1866,0,0,0,0,0,0,0,0,5.1619,5.1627,5.1706,5.1708,5.1711,5.1763,5.1745,5.181,5.178,5.1754,5.1778,5.1777,5.182,5.1826,5.1841,5.1898,5.1901,5.1865,5.1867,5.1869,5.187,0,0,0,0,0,0,0,5.1614,5.1624,5.1722,5.1707,5.171,5.1711,5.172,5.1758,5.1791,5.1756,5.1757,5.1766,5.1821,5.1838,5.1843,5.1902,5.1865,5.1868,5.187,5.1872,5.1997,5.1998,0,0,0,0,0,0,5.1608,5.162,5.1719,5.1724,5.1662,5.1715,5.1724,5.1747,5.1791,5.1797,5.1766,5.1766,5.1832,5.1839,5.1846,5.1898,5.1869,5.1872,5.1874,5.1996,5.1997,5.1998,0,0,0,0,0,0,5.1605,5.1616,5.1716,5.1673,5.1685,5.1718,5.1744,5.1749,5.1766,5.1799,5.1804,5.1778,5.1832,5.184,5.1883,5.19,5.1874,5.1877,5.1995,5.1996,5.1998,5.2002,0,0,0,0,0,0,5.1601,5.1615,5.1632,5.1673,5.1688,5.1754,5.1745,5.1751,5.1773,5.1773,5.1811,5.1816,5.1832,5.1877,5.1887,5.1905,5.188,5.1993,5.1995,5.1997,5.2,5.2003,5.2006,0,0,0,0,0,5.1596,5.1629,5.1633,5.1645,5.171,5.1755,5.1763,5.1781,5.1774,5.1791,5.1812,5.1815,5.1897,5.1882,5.1892,5.1912,5.1992,5.1995,5.1997,5.1999,5.2003,5.2006,0,0,0,0,0,0,5.1588,5.1635,5.164,5.1687,5.1717,5.1757,5.1778,5.1785,5.1816,5.1815,5.1835,5.1843,5.1885,5.1902,5.1884,5.1954,5.1944,5.1948,5.1941,5.1945,5.1948,5.1943,5.1883,0,0,0,0,0,5.1592,5.1626,5.1664,5.1703,5.1718,5.1745,5.1766,5.1777,5.1808,5.182,5.1845,5.1873,5.1906,5.1926,5.1958,5.2003,5.2011,5.2021,5.2024,5.2026,5.203,5.2056,5.2061,5.2007,5.2007,5.2007,0,0,5.16,5.163,5.165,5.1702,5.1726,5.176,5.1756,5.1791,5.1816,5.1825,5.1868,5.1886,5.192,5.1964,5.1984,5.198,5.2047,5.203,5.2031,5.2034,5.2059,5.2064,5.2068,5.2008,5.2008,5.2008,0,0,5.1632,5.1658,5.1694,5.1719,5.1757,5.1775,5.1783,5.1822,5.1836,5.1879,5.1887,5.1916,5.1971,5.1995,5.2014,5.2056,5.2059,5.2065,5.208,5.2105,5.2109,5.2113,5.2128,5.2133,5.2069,5.2069,5.2069,0,5.1637,5.1689,5.171,5.1746,5.1768,5.1781,5.1816,5.1838,5.1884,5.1898,5.1893,5.1963,5.1986,5.2036,5.2047,5.2062,5.2072,5.2061,5.2107,5.2111,5.2115,5.213,5.2135,5.2069,5.2069,5.2069,5.2069,0,5.1694,5.173,5.1753,5.1799,5.1824,5.1859,5.1884,5.1907,5.1917,5.1935,5.1979,5.2007,5.2045,5.2058,5.2067,5.2109,5.2105,5.2103,5.2093,5.212,5.2135,5.214,5.207,5.207,5.207,5.207,0,0,5.1722,5.178,5.1789,5.181,5.1853,5.188,5.1915,5.1954,5.1973,5.2004,5.2034,5.2081,5.208,5.2101,5.2113,5.2135,5.2167,5.213,5.2131,5.2136,5.2215,5.2217,5.2223,5.217,5.2171,5.2172,5.2213,0,5.176,5.1825,5.1845,5.1899,5.1933,5.1945,5.1976,5.2005,5.2023,5.2053,5.2073,5.2106,5.2102,5.2115,5.2137,5.2158,5.2183,5.2155,5.2197,5.2198,5.2188,5.2231,5.2232,5.227,5.2218,5.2219,5.222,0,5.1812,5.1846,5.1904,5.1944,5.1959,5.1986,5.2024,5.2052,5.2085,5.2097,5.2122,5.2132,5.2169,5.2156,5.2206,5.2187,5.2205,5.2218,5.222,5.2225,5.2211,5.2236,5.2282,5.2288,5.2229,5.2228,5.2228,0,5.1828,5.1888,5.1931,5.1948,5.1995,5.2014,5.2034,5.2067,5.2089,5.2121,5.2136,5.2171,5.219,5.2216,5.2236,5.2225,5.2284,5.2273,5.2294,5.2294,5.2306,5.2305,5.2355,5.2317,5.2317,5.2317,5.2317,0,5.1868,5.1903,5.1939,5.1965,5.2004,5.2026,5.2064,5.2085,5.2113,5.2143,5.2155,5.2182,5.2206,5.2236,5.2251,5.229,5.2298,5.2309,5.2312,5.2308,5.2307,5.232,5.2318,5.2319,5.2318,5.2318,5.2318,0,5.1892,5.1917,5.1965,5.2006,5.2017,5.2044,5.2079,5.2104,5.2123,5.2161,5.2171,5.22,5.2237,5.2259,5.2304,5.2314,5.2357,5.236,5.2347,5.2348,5.2368,5.2366,5.2429,5.2439,5.2394,5.2394,5.2395,0,5.1916,5.1944,5.1988,5.201,5.2031,5.2065,5.2088,5.2111,5.2134,5.2174,5.2195,5.2232,5.2263,5.232,5.2345,5.238,5.2383,5.2403,5.2388,5.2383,5.2384,5.2382,5.2385,5.2405,5.2405,5.2406,5.2406,0,5.1956,5.1967,5.2001,5.204,5.2068,5.2099,5.213,5.2146,5.2174,5.2199,5.2237,5.2262,5.2309,5.2346,5.2383,5.2402,5.2409,5.2411,5.2417,5.2413,5.2405,5.241,5.2354,5.2409,5.2409,5.2408,5.2408,5.2408,5.1981,5.2006,5.2042,5.208,5.2106,5.2134,5.2161,5.2184,5.2216,5.2258,5.2269,5.2309,5.2341,5.2392,5.2412,5.2443,5.2439,5.2449,5.2451,5.2454,5.2454,5.24,5.2449,5.2449,5.2449,5.2449,5.2449,0,5.2022,5.2046,5.208,5.2124,5.2153,5.2158,5.2193,5.2217,5.2252,5.2282,5.2313,5.2357,5.2393,5.2421,5.2458,5.2477,5.2481,5.2486,5.2485,5.2489,5.2455,5.2446,5.2482,5.2482,5.2482,5.2482,5.2482,5.2482,5.2047,5.209,5.2106,5.2162,5.2185,5.2226,5.2245,5.2271,5.2296,5.2345,5.2375,5.2394,5.2423,5.2462,5.2495,5.2502,5.2515,5.252,5.2528,5.2495,5.2491,5.2488,5.2479,5.2522,5.2523,5.2559,5.256,5.256]}]]